Location: Beccas
(43.4309°N, 0.1528°E)
Time: 01:18:32
(UTC+00:00)

Lacrosse 4 Rocket - Pass Details

Date: 15 October 2021
Orbit: 537 x 619 km, 68.0° (Epoch: 02 December)

Event Time Altitude Azimuth Distance (km) Brightness Sun altitude
Rises 20:04:58 0° 336° (NNW) 2,794 5.5 -31.1°
Reaches altitude 10° 20:07:18 10° 345° (NNW) 1,906 4.4 -31.5°
Enters shadow 20:07:46 13° 347° (NNW) 1,736 4.2 -31.6°
